This demonstration page uses our WeatherBlox Daily Observations layout. Learn more.

Left ArrowRight Arrow

44.8408, -93.29828

Hourly Observations for March 2, 2022

Temp ( °F °C ) Dew Point ( °F °C ) Humidity (%) Winds ( mph kmh ) Pressure ( in mb ) Visibility ( mi km ) Precip ( " mm )
12:53 am 00:53 Mostly Clear 28 -2.2 21 -6.1 75 75 N 5 7 30.11 1020 9 14 0.00 0.00
1:53 am 01:53 Mostly Cloudy 28 -2.2 22 -5.6 78 78 Calm 30.09 1019 8 13 0.00 0.00
2:53 am 02:53 Cloudy 30 -1.1 23 -5 75 75 Calm 30.09 1019 7 11 0.00 0.00
3:53 am 03:53 Cloudy 30 -1.1 23 -5 75 75 Calm 30.09 1019 7 11 0.00 0.00
4:53 am 04:53 Cloudy 31 -0.6 24 -4.4 76 76 Calm 30.09 1019 7 11 0.00 0.00
5:45 am 05:45 Cloudy 30 -1.1 24 -4.4 79 79 Calm 30.11 1020 7 11 0.00 0.00
5:53 am 05:53 Cloudy 30 -1.1 24 -4.4 79 79 Calm 30.09 1019 7 11 0.00 0.00
6:06 am 06:06 Cloudy with Light Snow 31 -0.6 25 -3.9 79 79 N 3 6 30.12 1020 5 8 0.00 0.00
6:34 am 06:34 Cloudy with Haze 30 -1.1 25 -3.9 82 82 NNE 5 7 30.11 1020 6 10 0.01 0.25
6:53 am 06:53 Cloudy with Haze 30 -1.1 24 -4.4 79 79 N 10 17 30.10 1019 6 10 0.01 0.25
7:26 am 07:26 Cloudy 30 -1.1 25 -3.9 82 82 VRB 7 11 30.12 1020 7 11 0.00 0.00
7:53 am 07:53 Cloudy 30 -1.1 25 -3.9 82 82 N 6 9 30.10 1019 7 11 0.00 0.00
8:11 am 08:11 Cloudy 30 -1.1 25 -3.9 82 82 VRB 3 6 30.12 1020 7 11 0.00 0.00
8:19 am 08:19 Cloudy with Light Wintry Mix 30 -1.1 25 -3.9 82 82 VRB 5 7 30.12 1020 6 10 0.00 0.00
8:51 am 08:51 Cloudy with Light Wintry Mix 30 -1 27 -3 86 86 NNE 3 6 30.13 1020 7 11 0.00 0.00
8:53 am 08:53 Cloudy with Light Wintry Mix 31 -0.6 26 -3.3 82 82 NNE 3 6 30.11 1020 7 11 0.00 0.00
8:58 am 08:58 Cloudy 31 -0.6 26 -3.3 82 82 NNE 5 7 30.13 1020 7 11 0.00 0.00
9:12 am 09:12 Cloudy 31 -0.6 26 -3.3 82 82 NNE 7 11 30.13 1020 7 11 0.00 0.00
9:53 am 09:53 Cloudy 30 -1.1 25 -3.9 82 82 NNE 12 19 30.12 1020 7 11 0.00 0.00
10:29 am 10:29 Cloudy 29 -1.7 24 -4.4 82 82 N 12 19 30.15 1021 8 13 0.00 0.00
10:45 am 10:45 Cloudy 29 -1.7 23 -5 78 78 N 10 17 30.16 1021 10 16 0.00 0.00
10:53 am 10:53 Cloudy 29 -1.7 22 -5.6 75 75 N 14 22 30.14 1021 10 16 0.00 0.00
11:01 am 11:01 Cloudy 29 -1.7 20 -6.7 69 69 NNE 16 26 30.16 1021 10 16 0.00 0.00
11:53 am 11:53 Cloudy 29 -1.7 21 -6.1 72 72 N 10 17 30.16 1022 10 16 0.00 0.00
12:53 pm 12:53 Cloudy 30 -1.1 20 -6.7 66 66 N 10 17 30.17 1022 10 16 0.00 0.00
1:07 pm 13:07 Cloudy 31 -0.6 21 -6.1 67 67 N 10 17 30.18 1022 10 16 0.00 0.00
1:53 pm 13:53 Cloudy 32 0 20 -6.7 61 61 N 8 13 30.17 1022 10 16 0.00 0.00
2:53 pm 14:53 Mostly Cloudy 33 0.6 19 -7.2 56 56 N 12 19 30.18 1022 10 16 0.00 0.00
3:53 pm 15:53 Mostly Cloudy 32 0 17 -8.3 54 54 N 8 13 30.20 1023 10 16 0.00 0.00
4:53 pm 16:53 Mostly Cloudy 32 0 16 -8.9 52 52 NNE 10 17 30.22 1023 10 16 0.00 0.00
5:53 pm 17:53 Mostly Cloudy 30 -1.1 14 -10 51 51 NNE 12 19 30.25 1024 10 16 0.00 0.00
6:53 pm 18:53 Partly Cloudy 28 -2.2 14 -10 56 56 N 10 17 30.28 1025 10 16 0.00 0.00
7:53 pm 19:53 Mostly Clear 27 -2.8 13 -10.6 55 55 N 8 13 30.31 1026 10 16 0.00 0.00
8:53 pm 20:53 Mostly Clear 25 -3.9 12 -11.1 58 58 NNW 5 7 30.32 1027 10 16 0.00 0.00
9:53 pm 21:53 Partly Cloudy 26 -3.3 9 -12.8 48 48 N 12 19 30.33 1027 10 16 0.00 0.00
10:53 pm 22:53 Partly Cloudy 24 -4.4 5 -15 44 44 N 12 19 30.35 1028 10 16 0.00 0.00
11:53 pm 23:53 Mostly Cloudy 23 -5 5 -15 46 46 N 9 15 30.37 1029 10 16 0.00 0.00

Powered by AerisWeather